Location: Lake Sonoma
(38.7200°N, 123.0564°W)
Time: 14:23:33
(UTC-07:00)

ISS - All Passes

Search period start: 22 July 2014 00:00
Search period end: 01 August 2014 00:00
Orbit: 413 x 420 km, 51.6° (Epoch: 22 July)

Date Brightness Start Highest point End Pass type
(mag) Time Alt. Az. Time Alt. Az. Time Alt. Az.
22 Jul - 01:28:44 10° SSE 01:30:29 14° SE 01:32:14 10° E night (unlit)
22 Jul - 03:03:33 10° WSW 03:06:51 58° NW 03:10:11 10° NE visible
22 Jul - 04:42:20 10° NW 04:44:10 14° NNW 04:46:01 10° NNE visible
22 Jul - 07:57:31 10° NNW 07:59:58 18° NNE 08:02:24 10° ENE daylight
22 Jul - 09:33:40 10° NW 09:37:01 74° SW 09:40:22 10° SE daylight
23 Jul - 02:15:01 10° SW 02:18:21 77° SE 02:21:43 10° NE visible
23 Jul - 03:53:02 10° WNW 03:55:26 18° NNW 03:57:50 10° NNE visible
23 Jul - 07:09:20 10° NNW 07:11:13 14° NNE 07:13:06 10° NE daylight
23 Jul - 08:45:11 10° NW 08:48:31 61° NE 08:51:50 10° ESE daylight
23 Jul - 10:23:13 10° W 10:24:53 13° SW 10:26:33 10° SSW daylight
24 Jul - 01:26:46 10° SSW 01:29:55 40° SE 01:33:05 10° ENE visible
24 Jul - 03:03:55 10° W 03:06:45 25° NNW 03:09:35 10° NNE visible
24 Jul - 06:21:14 10° N 06:22:26 11° NNE 06:23:38 10° NE daylight
24 Jul - 07:56:48 10° NW 07:59:57 36° NNE 08:03:05 10° E daylight
24 Jul - 09:33:48 10° WNW 09:36:33 23° SW 09:39:18 10° S daylight
25 Jul - 00:38:53 10° S 00:41:32 22° SE 00:44:12 10° ENE night (unlit)
25 Jul - 02:14:58 10° WSW 02:18:07 37° NNW 02:21:17 10° NE visible
25 Jul - 03:54:21 10° NW 03:55:37 12° NNW 03:56:52 10° N visible
25 Jul - 07:08:30 10° NNW 07:11:19 24° NNE 07:14:07 10° E daylight
25 Jul - 08:44:57 10° WNW 08:48:10 43° SW 08:51:22 10° SSE daylight
25 Jul - 23:51:44 10° SSE 23:53:12 12° SE 23:54:41 10° ESE night (unlit)
26 Jul - 01:26:14 10° WSW 01:29:33 64° NW 01:32:53 10° NE visible
26 Jul - 03:04:54 10° NW 03:06:49 14° NNW 03:08:45 10° NNE visible
26 Jul - 06:20:15 10° NNW 06:22:37 18° NNE 06:24:58 10° ENE daylight
26 Jul - 07:56:20 10° NW 07:59:43 82° SW 08:03:04 10° SE daylight
27 Jul - 00:37:43 10° SW 00:41:02 70° SE 00:44:23 10° NE night (unlit)
27 Jul - 02:15:37 10° WNW 02:18:05 19° NNW 02:20:33 10° NNE visible
27 Jul - 05:32:04 10° NNW 05:33:52 14° NNE 05:35:39 10° NE visible
27 Jul - 07:07:52 10° NW 07:11:11 56° NE 07:14:30 10° ESE daylight
27 Jul - 08:45:40 10° W 08:47:35 14° SW 08:49:30 10° SSW daylight
27 Jul - 23:49:30 10° SSW 23:52:36 36° SE 23:55:43 10° ENE night (unlit)
28 Jul - 01:26:30 10° W 01:29:23 26° NNW 01:32:17 10° NNE visible
28 Jul - 03:06:39 10° NNW 03:07:03 10° N 03:07:27 10° N visible
28 Jul - 04:43:59 10° N 04:45:03 11° NNE 04:46:08 10° NNE visible
28 Jul - 06:19:29 10° NW 06:22:36 33° NNE 06:25:42 10° E daylight
28 Jul - 07:56:24 10° WNW 07:59:15 26° SW 08:02:04 10° S daylight
28 Jul - 23:01:41 10° S 23:04:13 20° SE 23:06:46 10° E night (unlit)
29 Jul - 00:37:35 10° WSW 00:40:45 40° NNW 00:43:57 10° NE visible
29 Jul - 02:16:52 10° NW 02:18:13 12° NNW 02:19:35 10° N visible
29 Jul - 05:31:11 10° NNW 05:33:57 23° NNE 05:36:41 10° E visible
29 Jul - 07:07:35 10° WNW 07:10:50 47° SW 07:14:04 10° SSE daylight
29 Jul - 22:14:48 10° SSE 22:15:53 11° SE 22:16:58 10° ESE night (unlit)
29 Jul - 23:48:52 10° WSW 23:52:11 70° NW 23:55:32 10° NE night (unlit)
30 Jul - 01:27:25 10° NW 01:29:26 15° NNW 01:31:26 10° NNE visible
30 Jul - 04:42:57 10° NNW 04:45:13 17° NNE 04:47:30 10° ENE visible
30 Jul - 06:18:59 10° NW 06:22:21 89° SW 06:25:43 10° SE daylight
30 Jul - 23:00:23 10° SW 23:03:41 63° SE 23:07:00 10° ENE night (unlit)
31 Jul - 00:38:09 10° WNW 00:40:41 20° NNW 00:43:13 10° NNE visible
31 Jul - 03:54:46 10° NNW 03:56:27 13° NNE 03:58:08 10° NE visible
31 Jul - 05:30:31 10° NW 05:33:49 51° NE 05:37:05 10° ESE visible
31 Jul - 07:08:08 10° W 07:10:15 16° SW 07:12:21 10° S daylight
31 Jul - 22:12:12 10° SSW 22:15:14 33° SE 22:18:17 10° ENE night (unlit)
31 Jul - 23:49:04 10° W 23:51:59 28° NNW 23:54:56 10° NNE night (unlit)
